INTELSAT 12 (IS-12)     
1 26590U 00068A   19261.49878274  .00000010  00000-0  00000+0 0  9994
2 26590   2.2826  87.4136 0003159  80.3208  73.2217  1.00273594 69099
ARIANE 44LP R/B         
1 26591U 00068B   19260.28763755  .00004360  00000-0  11070-2 0  9992
2 26591   6.5252 124.4128 6746502  84.9138 342.9441  2.97590330182556